Hourly Data Report for September 21, 2017

All times are specified in Local Standard Time (LST). Add 1 hour to adjust for Daylight Saving Time where and when it is observed.

POINT LEPREAU CS
NEW BRUNSWICK

45°04'23.040" N
66°26'57.090" W
6.00 m
8104201
71699
WPE

Download Data

Hourly Data (September 2017)
Hourly Data Report for September 21, 2017
Temp Definition
°C
Dew Point Temp Definition
°C
Rel Hum Definition
%
Wind Dir Definition
10's deg

Wind Spd Definition
km/h
Visibility Definition
km
Stn Press Definition
kPa
Hmdx Definition


Wind Chill Definition


Weather Definition


TIME
00:00 19.4 18.4 94 3 12   101.51     LegendNANA
01:00 18.8 17.2 90 3 16   101.59     LegendNANA
02:00 18.0 16.5 91 4 15   101.58     LegendNANA
03:00 17.3 16.1 92 4 11   101.57     LegendNANA
04:00 16.7 14.0 84 3 15   101.60     LegendNANA
05:00 15.7 12.8 83 4 14   101.63     LegendNANA
06:00 15.4 12.9 85 4 16   101.67     LegendNANA
07:00 15.7 12.7 82 3 18   101.70     LegendNANA
08:00 16.5 12.2 76 3 21   101.76     LegendNANA
09:00 18.1 11.8 66 5 17   101.84     LegendNANA
10:00 19.4 11.8 61 5 16   101.84     LegendNANA
11:00 20.1 11.2 57 3 21   101.86     LegendNANA
12:00 21.2 12.9 59 4 16   101.85     LegendNANA
13:00 18.2 13.4 74 9 17   101.86     LegendNANA
14:00 19.3 13.1 68 7 19   101.84     LegendNANA
15:00 18.9 11.7 63 7 18   101.87     LegendNANA
16:00 19.6 11.2 59 7 16   101.88     LegendNANA
17:00 18.4 11.0 62 7 14   101.91     LegendNANA
18:00 17.1 11.0 67 6 11   101.91     LegendNANA
19:00 16.2 9.8 66 4 10   101.93     LegendNANA
20:00 15.3 9.5 68 4 10   101.96     LegendNANA
21:00 14.2 9.5 73 4 9   102.04     LegendNANA
22:00 13.1 9.2 77 4 9   102.09     LegendNANA
23:00 12.7 8.6 76 3 11   102.09     LegendNANA

Notes on Data Quality.

Legend

  • E = Estimated
  • M = Missing
  • NA = Not Available
  • ‡ = Partner data that is not subject to review by the National Climate Archives
Date modified: